This demonstration page uses our WeatherBlox Daily Observations layout. Learn more.

Left ArrowRight Arrow

41.86663, -103.66717

Hourly Observations for August 17, 2020

Temp ( °F °C ) Dew Point ( °F °C ) Humidity (%) Winds ( mph kmh ) Pressure ( in mb ) Visibility ( mi km ) Precip ( " mm )
12:53 am 00:53 Clear 65 18.3 50 10 59 59 E 5 7 30.17 1022 10 16 N/A
1:53 am 01:53 Clear 63 17.2 51 10.6 65 65 E 6 9 30.17 1022 10 16 N/A
2:53 am 02:53 Clear 63 17.2 52 11.1 68 68 E 7 11 30.16 1022 10 16 N/A
3:53 am 03:53 Clear 62 16.7 54 12.2 75 75 ESE 7 11 30.16 1021 10 16 N/A
4:53 am 04:53 Clear 61 16.1 55 12.8 81 81 E 7 11 30.16 1021 10 16 N/A
5:53 am 05:53 Clear 64 17.8 58 14.4 81 81 E 12 19 30.16 1021 10 16 N/A
6:53 am 06:53 Sunny 64 17.8 58 14.4 81 81 undefined N/A 30.18 1022 10 16 N/A
7:53 am 07:53 Sunny 65 18.3 57 13.9 76 76 SE 8 13 30.20 1023 10 16 N/A
8:53 am 08:53 Sunny 72 22.2 59 15 64 64 ESE 7 11 30.19 1022 10 16 N/A
9:53 am 09:53 Sunny 78 25.6 60 15.6 54 54 E 8 13 30.19 1022 10 16 N/A
10:53 am 10:53 Sunny 83 28.3 60 15.6 46 46 ESE 9 15 30.17 1022 10 16 N/A
11:53 am 11:53 Sunny 88 31.1 61 16.1 40 40 ESE 10 17 30.13 1020 10 16 N/A
12:53 pm 12:53 Sunny 93 33.9 55 12.8 28 28 SE 9 15 30.10 1019 10 16 N/A
1:53 pm 13:53 Sunny 95 35 54 12.2 25 25 ESE 13 20 30.07 1018 10 16 N/A
2:53 pm 14:53 Sunny 98 36.7 53 11.7 22 22 E 6 9 30.04 1017 10 16 N/A
3:53 pm 15:53 Sunny 98 36.7 54 12.2 23 23 E 8 13 30.03 1017 10 16 N/A
4:53 pm 16:53 Sunny 95 35 52 11.1 23 23 ESE 9 15 30.02 1017 10 16 N/A
5:53 pm 17:53 Sunny 92 33.3 55 12.8 29 29 SE 9 15 30.01 1016 10 16 N/A
6:53 pm 18:53 Sunny 89 31.7 61 16.1 39 39 E 10 17 30.01 1016 10 16 N/A
7:53 pm 19:53 Clear 81 27.2 59 15 47 47 ESE 16 26 30.04 1017 10 16 N/A
8:53 pm 20:53 Clear 75 23.9 58 14.4 55 55 ESE 13 20 30.06 1018 10 16 N/A
9:53 pm 21:53 Clear 73 22.8 58 14.4 59 59 ESE 10 17 30.07 1018 10 16 N/A
10:53 pm 22:53 Clear 70 21.1 57 13.9 64 64 E 8 13 30.07 1018 10 16 N/A
11:53 pm 23:53 Clear 69 20.6 57 13.9 66 66 ESE 8 13 30.05 1018 10 16 N/A

Powered by AerisWeather